Regional Weather Roundup
Issued by NWS

Home | Current Version | Previous Version | Text Only | Print | Product List | Glossary On
Versions: 1 2 3 4 5 6 7 8 9 10 11 12 13 14 15 16 17 18 19 20 21 22 23 24 25 26 27 28 29 30 31 32 33 34 35 36 37 38 39 40 41 42 43 44 45 46 47 48 49 50
000
ASUS45 KBOU 101610
RWRCO

WEATHER ROUNDUP FOR COLORADO
NATIONAL WEATHER SERVICE DENVER/BOULDER CO
1000 AM MDT THU JUL 10 2014

NOTE: "FAIR" INDICATES FEW OR NO CLOUDS BELOW 12000 FEET WITH NO
SIGNIFICANT WEATHER AND/OR OBSTRUCTIONS TO VISIBILITY.

COZ001>005-013-030-031-101700-
...NORTHWEST COLORADO...

CITY           SKY/WX    TMP DP  RH WIND       PRES   REMARKS
CRAIG          MOSUNNY   71  48  43 N8        30.20F
HAYDEN         SUNNY     72  43  35 E6        30.23F
MEEKER         SUNNY     73  49  42 CALM      30.21F
MOUNT WERNER   SUNNY     59  37  44 W9        30.53S
STEAMBOAT SPGS SUNNY     67  44  43 CALM      30.24F
WALDEN         SUNNY     70  43  37 S7        30.31S
$$

COZ006>008-011-101700-
...WEST CENTRAL VALLEYS...

CITY           SKY/WX    TMP DP  RH WIND       PRES   REMARKS
GRAND JUNCTION SUNNY     80  48  32 SW6       30.11F
MONTROSE       SUNNY     80  48  32 VRB3      30.19F
EAGLE          MOSUNNY   70  43  37 CALM      30.26F
RIFLE          SUNNY     74  43  32 NW3       30.17F
DELTA          SUNNY     81  45  28 SE3       30.15F
NUCLA          SUNNY     77  48  36 CALM      30.23F
$$

COZ017>023-064>068-101700-
...SOUTHWEST COLORADO...

CITY           SKY/WX    TMP DP  RH WIND       PRES   REMARKS
DURANGO        SUNNY     72  51  47 SE3       30.26S
CORTEZ         SUNNY     75  53  46 SW8       30.20S
PAGOSA SPRINGS SUNNY     67  47  48 SW5       30.32S
TELLURIDE      SUNNY     66  46  48 CALM      30.41F
WOLF CREEK PAS NOT AVBL
$$

COZ009-010-012-014-032>034-037-058>063-101700-
...CENTRAL COLORADO...

CITY           SKY/WX    TMP DP  RH WIND       PRES   REMARKS
ASPEN          SUNNY     70  41  34 CALM      30.31F
BUENA VISTA    SUNNY     70  38  31 SE5       30.30F
COPPER MTN     SUNNY     59  37  44 W13       30.63F
BERTHOUD PASS  FAIR      50  36  57 NW6       30.67S
COTTONWOOD PAS SUNNY     72  34  25 CALM      30.45S
GUNNISON       NOT AVBL
KREMMLING      MOSUNNY   66  41  39 CALM      30.31F
LEADVILLE      SUNNY     64  37  36 NW6       30.44F
MONARCH PASS   SUNNY     50  37  62 SW8       30.72R
SALIDA         SUNNY     74  42  31 N6        30.35S
SUNLIGHT       MOSUNNY   61  46  59 CALM      30.55S
WILKERSON PASS SUNNY     63  36  36 N3        30.59S
$$

COZ069>075-101700-
...SAN LUIS VALLEY/SANGRE DE CRISTO MOUNTAINS...

CITY           SKY/WX    TMP DP  RH WIND       PRES   REMARKS
ALAMOSA        SUNNY     68  47  46 NW5       30.32S
LA VETA PASS   SUNNY     61  46  59 W6        30.48S
SAGUACHE       NOT AVBL
$$

COZ035-036-038>040-101700-
...NORTHERN COLORADO FRONT RANGE...

CITY           SKY/WX    TMP DP  RH WIND       PRES   REMARKS
DENVER INTL AP MOSUNNY   87  42  20 CALM      30.07F
DMNS CITY PARK   N/A     84  45  25 S1G7      30.07S
AURORA         MOSUNNY   83  44  25 VRB1      30.10F
FRONT RANGE AP NOT AVBL
ERIE MUNI ARPT SUNNY     86  44  22 E3        30.05F
BOULDER MUN AP SUNNY     81  52  36 CALM      30.06F
CENTENNIAL     MOSUNNY   83  39  21 N5        30.11F
BROOMFIELD     MOSUNNY   82  45  26 NE6       30.10S
FORT COLLINS   SUNNY     81  54  39 SE3       30.04F
LONGMONT       SUNNY     84  54  35 NE3       30.06S
$$

COZ041-046-047-076>085-087-088-101700-
...PIKES PEAK/PALMER DIVIDE AND SOUTHERN FOOTHILLS...

CITY           SKY/WX    TMP DP  RH WIND       PRES   REMARKS
COLO. SPRINGS  MOSUNNY   87  39  18 NE13      30.14R
A. F. ACADEMY  SUNNY     83  38  19 N12       30.16S
ELLICOTT       NOT AVBL
FALCON         SUNNY     83  38  20 E21       30.21R
FORT CARSON    SUNNY     87  42  20 VRB7      30.10S
LIMON          SUNNY     76  51  41 S8        30.09F
MONUMENT HILL  SUNNY     81  36  19 NE12      30.21R
TRINIDAD       SUNNY     83  45  26 E6        30.12F
$$

COZ042>045-048>051-090-091-101700-
...NORTHEAST COLORADO...

CITY           SKY/WX    TMP DP  RH WIND       PRES   REMARKS
GREELEY ARPT   NOT AVBL
AKRON          SUNNY     77  56  48 S20G26    30.04F
BURLINGTON     SUNNY     74  62  66 S17       30.02F
WRAY           SUNNY     81  59  47 S12G20    30.00F
STERLING       SUNNY     82  61  47 S13       29.99F
HOLYOKE        SUNNY     79  63  57 S13G18    30.00S
FORT MORGAN    SUNNY     79  53  40 SE9       30.03F
$$

COZ086-089-092>099-101700-
...SOUTHEAST COLORADO...

CITY           SKY/WX    TMP DP  RH WIND       PRES   REMARKS
PUEBLO         SUNNY     79  50  36 VRB5      30.04S
LA JUNTA       SUNNY     80  52  37 CALM      30.02F
LAMAR          SUNNY     86  50  28 SE5       29.97S
SPRINGFIELD      N/A     86  49  27 SW6       30.03F
$$


USA.gov is the U.S. government's official web portal to all federal, state and local government web resources and services.